Time,TemperatureF,DewpointF,PressureIn,WindDirection,WindDirectionDegrees,WindSpeedMPH,WindSpeedGustMPH,Humidity,HourlyPrecipIn,Conditions,Clouds,dailyrainin,SoftwareType,DateUTC
2013-05-14 00:01:00,30.8,28.8,30.17,NNW,336,0.0,0.0,92,0.00,,,0.39,Wunderground v.1.13,2013-05-14 04:01:00,
2013-05-14 00:02:00,30.7,28.9,30.17,NNW,336,0.0,0.0,93,0.00,,,0.39,Wunderground v.1.13,2013-05-14 04:02:00,
2013-05-14 00:07:00,30.5,28.5,30.17,NNW,336,0.0,0.0,92,0.00,,,0.39,Wunderground v.1.13,2013-05-14 04:07:00,
2013-05-14 00:12:00,30.3,28.5,30.17,NNW,336,0.0,0.0,93,0.00,,,0.39,Wunderground v.1.13,2013-05-14 04:12:00,
2013-05-14 00:17:00,30.3,28.5,30.17,NNW,336,0.0,0.0,93,0.00,,,0.39,Wunderground v.1.13,2013-05-14 04:17:00,
2013-05-14 00:22:00,30.2,28.4,30.17,NNW,336,0.0,0.0,93,0.00,,,0.39,Wunderground v.1.13,2013-05-14 04:22:00,
2013-05-14 00:27:00,30.2,28.4,30.17,NNW,336,0.0,0.0,93,0.00,,,0.39,Wunderground v.1.13,2013-05-14 04:27:00,
2013-05-14 00:32:00,30.1,28.3,30.17,NNW,336,0.0,0.0,93,0.00,,,0.39,Wunderground v.1.13,2013-05-14 04:32:00,
2013-05-14 00:37:00,30.0,28.2,30.17,NNW,336,0.0,0.0,93,0.00,,,0.39,Wunderground v.1.13,2013-05-14 04:37:00,
2013-05-14 00:42:00,30.0,28.2,30.17,NNW,336,0.0,0.0,93,0.00,,,0.39,Wunderground v.1.13,2013-05-14 04:42:00,
2013-05-14 00:47:00,29.9,28.1,30.17,NNW,336,0.0,0.0,93,0.00,,,0.39,Wunderground v.1.13,2013-05-14 04:47:00,
2013-05-14 00:52:00,29.8,28.0,30.17,NNW,336,0.0,0.0,93,0.00,,,0.39,Wunderground v.1.13,2013-05-14 04:52:00,
2013-05-14 00:57:00,29.7,27.9,30.17,NNW,336,0.0,0.0,93,0.00,,,0.39,Wunderground v.1.13,2013-05-14 04:57:00,
2013-05-14 01:02:00,29.7,27.9,30.17,NNW,336,0.0,0.0,93,0.00,,,0.39,Wunderground v.1.13,2013-05-14 05:02:00,
2013-05-14 01:08:00,29.6,27.8,30.17,NNW,336,0.0,0.0,93,0.00,,,0.39,Wunderground v.1.13,2013-05-14 05:08:00,
2013-05-14 01:14:00,29.5,28.0,30.17,NNW,336,0.0,0.0,94,0.00,,,0.39,Wunderground v.1.13,2013-05-14 05:14:00,
2013-05-14 01:20:00,29.5,28.0,30.18,NNW,336,0.0,0.0,94,0.00,,,0.39,Wunderground v.1.13,2013-05-14 05:20:00,
2013-05-14 01:26:00,29.4,27.9,30.18,NNW,336,0.0,0.0,94,0.00,,,0.39,Wunderground v.1.13,2013-05-14 05:26:00,
2013-05-14 01:32:00,29.3,27.8,30.18,NNW,336,0.0,0.0,94,0.00,,,0.39,Wunderground v.1.13,2013-05-14 05:32:00,
2013-05-14 01:38:00,29.3,27.8,30.18,NNW,336,0.0,0.0,94,0.00,,,0.39,Wunderground v.1.13,2013-05-14 05:38:00,
2013-05-14 01:44:00,29.3,27.8,30.17,NNW,336,0.0,0.0,94,0.00,,,0.39,Wunderground v.1.13,2013-05-14 05:44:00,
2013-05-14 01:49:00,29.2,27.7,30.18,NNW,336,0.0,0.0,94,0.00,,,0.39,Wunderground v.1.13,2013-05-14 05:49:00,
2013-05-14 01:55:00,29.1,27.6,30.18,NNW,336,0.0,0.0,94,0.00,,,0.39,Wunderground v.1.13,2013-05-14 05:55:00,
2013-05-14 02:00:00,29.0,27.5,30.18,NNW,336,0.0,0.0,94,0.00,,,0.39,Wunderground v.1.13,2013-05-14 06:00:00,
2013-05-14 02:05:00,29.0,27.5,30.18,NNW,336,0.0,0.0,94,0.00,,,0.39,Wunderground v.1.13,2013-05-14 06:05:00,
2013-05-14 02:11:00,28.8,27.3,30.18,NNW,336,0.0,0.0,94,0.00,,,0.39,Wunderground v.1.13,2013-05-14 06:11:00,
2013-05-14 02:17:00,28.8,27.3,30.18,NNW,336,0.0,0.0,94,0.00,,,0.39,Wunderground v.1.13,2013-05-14 06:17:00,
2013-05-14 02:22:00,28.8,27.3,30.18,NNW,336,0.0,0.0,94,0.00,,,0.39,Wunderground v.1.13,2013-05-14 06:22:00,
2013-05-14 02:28:00,28.8,27.3,30.18,NNW,336,0.0,0.0,94,0.00,,,0.39,Wunderground v.1.13,2013-05-14 06:28:00,
2013-05-14 02:34:00,28.8,27.3,30.18,NNW,336,0.0,0.0,94,0.00,,,0.39,Wunderground v.1.13,2013-05-14 06:34:00,
2013-05-14 02:40:00,28.7,27.2,30.18,NNW,336,0.0,0.0,94,0.00,,,0.39,Wunderground v.1.13,2013-05-14 06:40:00,
2013-05-14 02:46:00,28.6,27.1,30.18,NNW,336,0.0,0.0,94,0.00,,,0.39,Wunderground v.1.13,2013-05-14 06:46:00,
2013-05-14 02:51:00,28.5,27.0,30.18,NNW,336,0.0,0.0,94,0.00,,,0.00,Wunderground v.1.13,2013-05-14 06:51:00,
2013-05-14 02:57:00,28.4,26.9,30.18,NNW,336,0.0,0.0,94,0.00,,,0.00,Wunderground v.1.13,2013-05-14 06:57:00,
2013-05-14 03:02:00,28.1,26.6,30.17,NNW,336,0.0,0.0,94,0.00,,,0.00,Wunderground v.1.13,2013-05-14 07:02:00,
2013-05-14 03:07:00,28.3,26.8,30.18,NNW,336,0.0,0.0,94,0.00,,,0.00,Wunderground v.1.13,2013-05-14 07:07:00,
2013-05-14 03:12:00,28.2,26.7,30.18,NNW,336,0.0,0.0,94,0.00,,,0.00,Wunderground v.1.13,2013-05-14 07:12:00,
2013-05-14 03:17:00,28.2,26.7,30.17,NNW,336,0.0,0.0,94,0.00,,,0.00,Wunderground v.1.13,2013-05-14 07:17:00,
2013-05-14 03:22:00,28.0,26.5,30.18,NNW,336,0.0,0.0,94,0.00,,,0.00,Wunderground v.1.13,2013-05-14 07:22:00,
2013-05-14 03:27:00,28.1,26.6,30.18,NNW,336,0.0,0.0,94,0.00,,,0.00,Wunderground v.1.13,2013-05-14 07:27:00,
2013-05-14 03:32:00,28.0,26.5,30.18,NNW,336,0.0,0.0,94,0.00,,,0.00,Wunderground v.1.13,2013-05-14 07:32:00,
2013-05-14 03:37:00,27.9,26.4,30.18,NNW,336,0.0,0.0,94,0.00,,,0.00,Wunderground v.1.13,2013-05-14 07:37:00,
2013-05-14 03:42:00,27.9,26.4,30.18,NNW,336,0.0,0.0,94,0.00,,,0.00,Wunderground v.1.13,2013-05-14 07:42:00,
2013-05-14 03:47:00,27.9,26.7,30.18,NNW,336,0.0,0.0,95,0.00,,,0.00,Wunderground v.1.13,2013-05-14 07:47:00,
2013-05-14 03:52:00,27.8,26.6,30.18,NNW,336,0.0,0.0,95,0.00,,,0.00,Wunderground v.1.13,2013-05-14 07:52:00,
2013-05-14 03:57:00,27.8,26.6,30.18,NNW,336,0.0,0.0,95,0.00,,,0.00,Wunderground v.1.13,2013-05-14 07:57:00,
2013-05-14 04:02:00,27.7,26.2,30.18,NNW,336,0.0,0.0,94,0.00,,,0.00,Wunderground v.1.13,2013-05-14 08:02:00,
2013-05-14 04:07:00,27.8,26.3,30.18,NNW,336,0.0,0.0,94,0.00,,,0.00,Wunderground v.1.13,2013-05-14 08:07:00,
2013-05-14 04:12:00,27.6,26.1,30.18,NNW,336,0.0,0.0,94,0.00,,,0.00,Wunderground v.1.13,2013-05-14 08:12:00,
2013-05-14 04:17:00,27.5,26.0,30.18,NNW,336,0.0,0.0,94,0.00,,,0.00,Wunderground v.1.13,2013-05-14 08:17:00,
2013-05-14 04:22:00,27.5,26.0,30.18,NNW,336,0.0,0.0,94,0.00,,,0.00,Wunderground v.1.13,2013-05-14 08:22:00,
2013-05-14 04:27:00,27.5,26.3,30.18,NNW,336,0.0,0.0,95,0.00,,,0.00,Wunderground v.1.13,2013-05-14 08:27:00,
2013-05-14 04:32:00,27.5,26.3,30.18,NNW,336,0.0,0.0,95,0.00,,,0.00,Wunderground v.1.13,2013-05-14 08:32:00,
2013-05-14 04:37:00,27.3,25.8,30.18,NNW,336,0.0,0.0,94,0.00,,,0.00,Wunderground v.1.13,2013-05-14 08:37:00,
2013-05-14 04:42:00,27.1,25.6,30.18,NNW,336,0.0,0.0,94,0.00,,,0.00,Wunderground v.1.13,2013-05-14 08:42:00,
2013-05-14 04:47:00,27.3,25.8,30.18,NNW,336,0.0,0.0,94,0.00,,,0.00,Wunderground v.1.13,2013-05-14 08:47:00,
2013-05-14 04:52:00,27.3,26.1,30.18,NNW,336,0.0,0.0,95,0.00,,,0.00,Wunderground v.1.13,2013-05-14 08:52:00,
2013-05-14 04:57:00,27.2,26.0,30.18,NNW,336,0.0,0.0,95,0.00,,,0.00,Wunderground v.1.13,2013-05-14 08:57:00,
2013-05-14 05:02:00,27.3,26.1,30.18,NNW,336,0.0,0.0,95,0.00,,,0.00,Wunderground v.1.13,2013-05-14 09:02:00,
2013-05-14 05:07:00,27.4,26.2,30.18,NNW,336,0.0,0.0,95,0.00,,,0.00,Wunderground v.1.13,2013-05-14 09:07:00,
2013-05-14 05:12:00,27.4,26.2,30.18,NNW,336,0.0,0.0,95,0.00,,,0.00,Wunderground v.1.13,2013-05-14 09:12:00,
2013-05-14 05:17:00,27.2,25.7,30.18,NNW,336,0.0,0.0,94,0.00,,,0.00,Wunderground v.1.13,2013-05-14 09:17:00,
2013-05-14 05:22:00,27.1,25.6,30.18,NNW,336,0.0,0.0,94,0.00,,,0.00,Wunderground v.1.13,2013-05-14 09:22:00,
2013-05-14 05:27:00,27.1,25.6,30.18,NNW,336,0.0,0.0,94,0.00,,,0.00,Wunderground v.1.13,2013-05-14 09:27:00,
2013-05-14 05:32:00,27.0,25.8,30.18,NNW,336,0.0,0.0,95,0.00,,,0.00,Wunderground v.1.13,2013-05-14 09:32:00,
2013-05-14 05:37:00,27.0,25.8,30.18,NNW,336,0.0,0.0,95,0.00,,,0.00,Wunderground v.1.13,2013-05-14 09:37:00,
2013-05-14 05:42:00,26.9,25.7,30.18,NNW,336,0.0,0.0,95,0.00,,,0.00,Wunderground v.1.13,2013-05-14 09:42:00,
2013-05-14 05:47:00,26.9,25.7,30.18,NNW,336,0.0,0.0,95,0.00,,,0.00,Wunderground v.1.13,2013-05-14 09:47:00,
2013-05-14 05:52:00,26.8,25.6,30.18,NNW,336,0.0,0.0,95,0.00,,,0.00,Wunderground v.1.13,2013-05-14 09:52:00,
2013-05-14 05:57:00,26.8,25.6,30.18,NNW,336,0.0,0.0,95,0.00,,,0.00,Wunderground v.1.13,2013-05-14 09:57:00,
2013-05-14 06:03:00,26.7,25.5,30.18,NNW,336,0.0,0.0,95,0.00,,,0.00,Wunderground v.1.13,2013-05-14 10:03:00,
2013-05-14 06:08:00,26.6,25.4,30.18,NNW,336,0.0,0.0,95,0.00,,,0.00,Wunderground v.1.13,2013-05-14 10:08:00,
2013-05-14 06:13:00,26.6,25.4,30.18,NNW,336,0.0,0.0,95,0.00,,,0.00,Wunderground v.1.13,2013-05-14 10:13:00,
2013-05-14 06:18:00,26.7,25.5,30.18,NNW,336,0.0,0.0,95,0.00,,,0.00,Wunderground v.1.13,2013-05-14 10:18:00,
2013-05-14 06:22:00,26.7,25.5,30.18,NNW,336,0.0,0.0,95,0.00,,,0.00,Wunderground v.1.13,2013-05-14 10:22:00,
2013-05-14 06:27:00,26.7,25.5,30.18,NNW,336,0.0,0.0,95,0.00,,,0.00,Wunderground v.1.13,2013-05-14 10:27:00,
2013-05-14 06:32:00,26.7,25.5,30.18,NNW,336,0.0,0.0,95,0.00,,,0.00,Wunderground v.1.13,2013-05-14 10:32:00,
2013-05-14 06:38:00,26.7,25.5,30.18,NNW,336,0.0,0.0,95,0.00,,,0.00,Wunderground v.1.13,2013-05-14 10:38:00,
2013-05-14 06:43:00,26.8,25.6,30.18,NNW,336,0.0,0.0,95,0.00,,,0.00,Wunderground v.1.13,2013-05-14 10:43:00,
2013-05-14 06:48:00,27.1,25.9,30.18,NNW,336,0.0,0.0,95,0.00,,,0.00,Wunderground v.1.13,2013-05-14 10:48:00,
2013-05-14 06:53:00,27.4,26.2,30.19,NNW,336,0.0,0.0,95,0.00,,,0.00,Wunderground v.1.13,2013-05-14 10:53:00,
2013-05-14 06:58:00,27.7,26.5,30.19,NNW,336,0.0,0.0,95,0.00,,,0.00,Wunderground v.1.13,2013-05-14 10:58:00,
2013-05-14 07:03:00,28.1,26.9,30.19,NNW,336,0.0,0.0,95,0.00,,,0.00,Wunderground v.1.13,2013-05-14 11:03:00,
2013-05-14 07:08:00,28.6,27.4,30.20,NNW,336,0.0,0.0,95,0.00,,,0.00,Wunderground v.1.13,2013-05-14 11:08:00,
2013-05-14 07:13:00,29.1,27.8,30.19,NNW,336,0.0,0.0,95,0.00,,,0.00,Wunderground v.1.13,2013-05-14 11:13:00,
2013-05-14 07:18:00,29.3,28.0,30.19,NNW,336,0.0,0.0,95,0.00,,,0.00,Wunderground v.1.13,2013-05-14 11:18:00,
2013-05-14 07:23:00,29.6,28.3,30.19,NNW,336,0.0,0.0,95,0.00,,,0.00,Wunderground v.1.13,2013-05-14 11:23:00,
2013-05-14 07:28:00,30.0,28.7,30.20,NNW,336,0.0,0.0,95,0.00,,,0.00,Wunderground v.1.13,2013-05-14 11:28:00,
2013-05-14 07:33:00,30.2,28.9,30.20,NNW,336,0.0,0.0,95,0.00,,,0.00,Wunderground v.1.13,2013-05-14 11:33:00,
2013-05-14 07:38:00,30.4,29.1,30.20,NNW,336,0.0,0.0,95,0.00,,,0.00,Wunderground v.1.13,2013-05-14 11:38:00,
2013-05-14 07:43:00,30.9,29.6,30.20,NNW,336,0.0,0.0,95,0.00,,,0.00,Wunderground v.1.13,2013-05-14 11:43:00,
2013-05-14 07:48:00,31.2,29.9,30.20,NNW,336,0.0,0.0,95,0.00,,,0.00,Wunderground v.1.13,2013-05-14 11:48:00,
2013-05-14 07:53:00,31.3,30.0,30.20,NNW,336,0.0,0.0,95,0.00,,,0.00,Wunderground v.1.13,2013-05-14 11:53:00,
2013-05-14 07:58:00,31.6,30.3,30.20,NNW,336,0.0,0.0,95,0.00,,,0.00,Wunderground v.1.13,2013-05-14 11:58:00,
2013-05-14 08:03:00,32.0,30.7,30.20,NNW,336,0.0,0.0,95,0.00,,,0.00,Wunderground v.1.13,2013-05-14 12:03:00,
2013-05-14 08:08:00,32.4,30.9,30.20,NNW,336,0.0,0.0,94,0.00,,,0.00,Wunderground v.1.13,2013-05-14 12:08:00,
2013-05-14 08:13:00,33.4,31.9,30.20,NNW,336,0.0,0.0,94,0.00,,,0.00,Wunderground v.1.13,2013-05-14 12:13:00,
2013-05-14 08:18:00,34.4,32.9,30.20,NNW,336,0.0,1.0,94,0.00,,,0.00,Wunderground v.1.13,2013-05-14 12:18:00,
2013-05-14 08:23:00,35.0,33.2,30.20,NNW,336,0.0,2.0,93,0.00,,,0.00,Wunderground v.1.13,2013-05-14 12:23:00,
2013-05-14 08:28:00,35.3,32.9,30.20,NNW,336,0.0,2.0,91,0.00,,,0.00,Wunderground v.1.13,2013-05-14 12:28:00,
2013-05-14 08:33:00,35.9,33.3,30.20,NNW,336,0.0,1.0,90,0.00,,,0.00,Wunderground v.1.13,2013-05-14 12:33:00,
2013-05-14 08:38:00,36.2,32.7,30.20,NNW,336,0.0,0.0,87,0.00,,,0.01,Wunderground v.1.13,2013-05-14 12:38:00,
2013-05-14 08:43:00,36.8,33.3,30.20,NNW,336,0.0,1.0,87,0.00,,,0.01,Wunderground v.1.13,2013-05-14 12:43:00,
2013-05-14 08:48:00,37.1,32.4,30.20,NNW,336,0.0,1.0,83,0.00,,,0.01,Wunderground v.1.13,2013-05-14 12:48:00,
2013-05-14 08:53:00,38.1,33.7,30.20,NNW,336,1.0,2.0,84,0.00,,,0.01,Wunderground v.1.13,2013-05-14 12:53:00,
2013-05-14 08:58:00,38.8,32.8,30.20,NNW,336,0.0,2.0,79,0.00,,,0.01,Wunderground v.1.13,2013-05-14 12:58:00,
2013-05-14 09:03:00,39.1,31.8,30.20,NNW,336,0.0,1.0,75,0.00,,,0.01,Wunderground v.1.13,2013-05-14 13:03:00,
2013-05-14 09:08:00,40.2,32.9,30.19,NNW,336,0.0,0.0,75,0.00,,,0.01,Wunderground v.1.13,2013-05-14 13:08:00,
2013-05-14 09:13:00,40.9,33.2,30.19,NNW,336,0.0,2.0,74,0.00,,,0.01,Wunderground v.1.13,2013-05-14 13:13:00,
2013-05-14 09:18:00,41.5,32.1,30.19,NNW,336,0.0,1.0,69,0.00,,,0.01,Wunderground v.1.13,2013-05-14 13:18:00,
2013-05-14 09:23:00,42.7,33.2,30.19,NNW,336,1.0,3.0,69,0.00,,,0.01,Wunderground v.1.13,2013-05-14 13:23:00,
2013-05-14 09:28:00,43.9,32.5,30.19,NNW,336,0.0,1.0,64,0.00,,,0.01,Wunderground v.1.13,2013-05-14 13:28:00,
2013-05-14 09:33:00,45.6,32.9,30.18,NNW,336,0.0,4.0,61,0.00,,,0.01,Wunderground v.1.13,2013-05-14 13:33:00,
2013-05-14 09:38:00,47.4,33.4,30.18,NW,325,1.0,4.0,58,0.00,,,0.01,Wunderground v.1.13,2013-05-14 13:38:00,
2013-05-14 09:43:00,48.2,31.9,30.18,West,262,1.0,8.0,53,0.00,,,0.01,Wunderground v.1.13,2013-05-14 13:43:00,
2013-05-14 09:48:00,48.1,32.2,30.18,West,261,0.0,4.0,54,0.00,,,0.01,Wunderground v.1.13,2013-05-14 13:48:00,
2013-05-14 09:53:00,48.8,32.9,30.18,West,261,0.0,3.0,54,0.00,,,0.01,Wunderground v.1.13,2013-05-14 13:53:00,
2013-05-14 09:58:00,50.2,35.1,30.18,West,261,3.0,4.0,56,0.00,,,0.01,Wunderground v.1.13,2013-05-14 13:58:00,
2013-05-14 10:03:00,50.9,34.8,30.18,West,259,1.0,5.0,54,0.00,,,0.01,Wunderground v.1.13,2013-05-14 14:03:00,
2013-05-14 10:08:00,51.1,34.1,30.17,WSW,239,7.0,11.0,52,0.00,,,0.01,Wunderground v.1.13,2013-05-14 14:08:00,
2013-05-14 10:13:00,50.8,34.3,30.17,WSW,244,5.0,7.0,53,0.00,,,0.01,Wunderground v.1.13,2013-05-14 14:13:00,
2013-05-14 10:18:00,51.3,33.3,30.17,SSW,204,8.0,12.0,50,0.00,,,0.01,Wunderground v.1.13,2013-05-14 14:18:00,
2013-05-14 10:23:00,51.5,34.0,30.17,SW,219,3.0,12.0,51,0.00,,,0.01,Wunderground v.1.13,2013-05-14 14:23:00,
2013-05-14 10:28:00,51.4,33.4,30.16,SSW,205,0.0,10.0,50,0.00,,,0.01,Wunderground v.1.13,2013-05-14 14:28:00,
2013-05-14 10:33:00,51.8,33.7,30.16,SW,232,3.0,8.0,50,0.00,,,0.01,Wunderground v.1.13,2013-05-14 14:33:00,
2013-05-14 10:38:00,52.1,34.5,30.16,SSE,158,9.0,10.0,51,0.00,,,0.01,Wunderground v.1.13,2013-05-14 14:38:00,
2013-05-14 10:43:00,53.6,35.4,30.16,South,189,0.0,8.0,50,0.00,,,0.01,Wunderground v.1.13,2013-05-14 14:43:00,
2013-05-14 10:48:00,54.9,33.9,30.16,WNW,301,3.0,9.0,45,0.00,,,0.01,Wunderground v.1.13,2013-05-14 14:48:00,
2013-05-14 10:53:00,55.3,35.4,30.15,SSW,198,3.0,10.0,47,0.00,,,0.01,Wunderground v.1.13,2013-05-14 14:53:00,
2013-05-14 10:58:00,54.1,33.2,30.15,SW,230,0.0,7.0,45,0.00,,,0.01,Wunderground v.1.13,2013-05-14 14:58:00,
2013-05-14 11:03:00,54.2,32.7,30.15,WSW,255,3.0,7.0,44,0.00,,,0.01,Wunderground v.1.13,2013-05-14 15:03:00,
2013-05-14 11:08:00,53.9,33.6,30.15,WNW,296,1.0,13.0,46,0.00,,,0.01,Wunderground v.1.13,2013-05-14 15:08:00,
2013-05-14 11:13:00,53.9,33.6,30.15,West,274,1.0,9.0,46,0.00,,,0.01,Wunderground v.1.13,2013-05-14 15:13:00,
2013-05-14 11:18:00,53.6,33.8,30.14,NW,304,1.0,6.0,47,0.00,,,0.01,Wunderground v.1.13,2013-05-14 15:18:00,
2013-05-14 11:23:00,53.7,32.8,30.14,WNW,293,2.0,6.0,45,0.00,,,0.01,Wunderground v.1.13,2013-05-14 15:23:00,
2013-05-14 11:28:00,53.9,33.6,30.14,WNW,290,9.0,9.0,46,0.00,,,0.01,Wunderground v.1.13,2013-05-14 15:28:00,
2013-05-14 11:33:00,53.6,32.2,30.14,SW,226,0.0,9.0,44,0.00,,,0.01,Wunderground v.1.13,2013-05-14 15:33:00,
2013-05-14 11:38:00,53.5,33.2,30.14,West,276,0.0,5.0,46,0.00,,,0.01,Wunderground v.1.13,2013-05-14 15:38:00,
2013-05-14 11:43:00,53.7,33.9,30.14,NW,310,1.0,6.0,47,0.00,,,0.01,Wunderground v.1.13,2013-05-14 15:43:00,
2013-05-14 11:48:00,54.1,34.3,30.14,WNW,296,1.0,7.0,47,0.00,,,0.01,Wunderground v.1.13,2013-05-14 15:48:00,
2013-05-14 11:53:00,54.0,33.1,30.14,West,265,0.0,7.0,45,0.00,,,0.01,Wunderground v.1.13,2013-05-14 15:53:00,
2013-05-14 11:58:00,54.2,33.3,30.13,SW,232,1.0,7.0,45,0.00,,,0.01,Wunderground v.1.13,2013-05-14 15:58:00,
2013-05-14 12:03:00,54.4,32.9,30.13,West,267,1.0,8.0,44,0.00,,,0.01,Wunderground v.1.13,2013-05-14 16:03:00,
2013-05-14 12:08:00,54.4,32.3,30.13,WSW,257,3.0,9.0,43,0.00,,,0.01,Wunderground v.1.13,2013-05-14 16:08:00,
2013-05-14 12:13:00,54.8,34.4,30.13,West,260,1.0,5.0,46,0.00,,,0.01,Wunderground v.1.13,2013-05-14 16:13:00,
2013-05-14 12:18:00,54.8,33.8,30.13,WSW,258,1.0,5.0,45,0.00,,,0.01,Wunderground v.1.13,2013-05-14 16:18:00,
2013-05-14 12:23:00,55.0,32.9,30.12,West,267,0.0,11.0,43,0.00,,,0.01,Wunderground v.1.13,2013-05-14 16:23:00,
2013-05-14 12:28:00,55.2,33.1,30.12,West,264,11.0,11.0,43,0.00,,,0.01,Wunderground v.1.13,2013-05-14 16:28:00,
2013-05-14 12:33:00,55.5,33.9,30.12,WNW,288,0.0,10.0,44,0.00,,,0.01,Wunderground v.1.13,2013-05-14 16:33:00,
2013-05-14 12:38:00,56.0,35.5,30.12,WNW,288,2.0,2.0,46,0.00,,,0.01,Wunderground v.1.13,2013-05-14 16:38:00,
2013-05-14 12:43:00,56.2,34.0,30.11,SW,217,0.0,7.0,43,0.00,,,0.01,Wunderground v.1.13,2013-05-14 16:43:00,
2013-05-14 12:48:00,56.5,35.4,30.11,WSW,252,0.0,10.0,45,0.00,,,0.01,Wunderground v.1.13,2013-05-14 16:48:00,
2013-05-14 12:53:00,56.4,34.2,30.12,SW,233,3.0,9.0,43,0.00,,,0.01,Wunderground v.1.13,2013-05-14 16:53:00,
2013-05-14 12:58:00,56.2,35.7,30.11,SW,236,0.0,4.0,46,0.00,,,0.01,Wunderground v.1.13,2013-05-14 16:58:00,
2013-05-14 13:03:00,55.6,35.1,30.11,SW,235,3.0,3.0,46,0.00,,,0.01,Wunderground v.1.13,2013-05-14 17:03:00,
2013-05-14 13:09:00,55.3,35.4,30.11,WSW,242,0.0,5.0,47,0.00,,,0.01,Wunderground v.1.13,2013-05-14 17:09:00,
2013-05-14 13:14:00,55.5,34.5,30.11,WSW,237,0.0,7.0,45,0.00,,,0.01,Wunderground v.1.13,2013-05-14 17:14:00,
2013-05-14 13:19:00,55.8,34.2,30.10,WSW,237,0.0,4.0,44,0.00,,,0.01,Wunderground v.1.13,2013-05-14 17:19:00,
2013-05-14 13:24:00,56.5,36.5,30.10,SW,232,1.0,5.0,47,0.00,,,0.01,Wunderground v.1.13,2013-05-14 17:24:00,
2013-05-14 13:29:00,56.6,34.9,30.10,SW,233,3.0,3.0,44,0.00,,,0.01,Wunderground v.1.13,2013-05-14 17:29:00,
2013-05-14 13:34:00,56.2,35.1,30.10,SW,234,4.0,7.0,45,0.00,,,0.01,Wunderground v.1.13,2013-05-14 17:34:00,
2013-05-14 13:39:00,55.7,35.2,30.10,SW,236,0.0,4.0,46,0.00,,,0.01,Wunderground v.1.13,2013-05-14 17:39:00,
2013-05-14 13:44:00,55.4,34.9,30.10,SW,236,0.0,4.0,46,0.00,,,0.01,Wunderground v.1.13,2013-05-14 17:44:00,
2013-05-14 13:49:00,55.5,34.5,30.09,SW,234,0.0,3.0,45,0.00,,,0.01,Wunderground v.1.13,2013-05-14 17:49:00,
2013-05-14 13:54:00,55.4,34.9,30.09,SW,234,4.0,4.0,46,0.00,,,0.01,Wunderground v.1.13,2013-05-14 17:54:00,
2013-05-14 13:59:00,55.5,35.6,30.09,SW,232,0.0,3.0,47,0.00,,,0.01,Wunderground v.1.13,2013-05-14 17:59:00,
2013-05-14 14:04:00,55.6,35.7,30.08,SW,232,0.0,2.0,47,0.00,,,0.01,Wunderground v.1.13,2013-05-14 18:04:00,
2013-05-14 14:09:00,56.1,35.6,30.09,SW,232,1.0,3.0,46,0.00,,,0.01,Wunderground v.1.13,2013-05-14 18:09:00,
2013-05-14 14:14:00,56.7,34.4,30.09,SW,232,2.0,4.0,43,0.00,,,0.01,Wunderground v.1.13,2013-05-14 18:14:00,
2013-05-14 14:19:00,57.5,35.7,30.09,WSW,257,0.0,7.0,44,0.00,,,0.01,Wunderground v.1.13,2013-05-14 18:19:00,
2013-05-14 14:24:00,57.7,35.9,30.09,WSW,255,0.0,3.0,44,0.00,,,0.01,Wunderground v.1.13,2013-05-14 18:24:00,
2013-05-14 14:29:00,57.7,36.5,30.08,West,261,1.0,5.0,45,0.00,,,0.01,Wunderground v.1.13,2013-05-14 18:29:00,
2013-05-14 14:34:00,57.9,35.5,30.08,West,271,0.0,5.0,43,0.00,,,0.01,Wunderground v.1.13,2013-05-14 18:34:00,
2013-05-14 14:39:00,58.0,38.4,30.09,West,271,0.0,4.0,48,0.00,,,0.01,Wunderground v.1.13,2013-05-14 18:39:00,
2013-05-14 14:44:00,58.0,36.2,30.08,West,271,0.0,1.0,44,0.00,,,0.01,Wunderground v.1.13,2013-05-14 18:44:00,
2013-05-14 14:49:00,57.6,34.7,30.08,West,271,2.0,3.0,42,0.00,,,0.01,Wunderground v.1.13,2013-05-14 18:49:00,
2013-05-14 14:54:00,57.6,34.7,30.08,West,271,0.0,4.0,42,0.00,,,0.01,Wunderground v.1.13,2013-05-14 18:54:00,
2013-05-14 14:59:00,57.6,34.7,30.08,West,271,0.0,2.0,42,0.00,,,0.01,Wunderground v.1.13,2013-05-14 18:59:00,
2013-05-14 15:04:00,57.8,36.0,30.08,West,263,2.0,5.0,44,0.00,,,0.01,Wunderground v.1.13,2013-05-14 19:04:00,
2013-05-14 15:09:00,58.0,35.0,30.07,West,263,0.0,1.0,42,0.00,,,0.01,Wunderground v.1.13,2013-05-14 19:09:00,
2013-05-14 15:14:00,58.6,35.0,30.07,West,263,1.0,3.0,41,0.00,,,0.01,Wunderground v.1.13,2013-05-14 19:14:00,
2013-05-14 15:19:00,59.5,36.4,30.07,WSW,254,3.0,5.0,42,0.00,,,0.01,Wunderground v.1.13,2013-05-14 19:19:00,
2013-05-14 15:24:00,59.2,36.1,30.06,WSW,254,0.0,5.0,42,0.00,,,0.01,Wunderground v.1.13,2013-05-14 19:24:00,
2013-05-14 15:29:00,58.4,34.2,30.07,WSW,254,0.0,3.0,40,0.00,,,0.01,Wunderground v.1.13,2013-05-14 19:29:00,
2013-05-14 15:34:00,58.5,36.1,30.06,WSW,254,0.0,2.0,43,0.00,,,0.01,Wunderground v.1.13,2013-05-14 19:34:00,
2013-05-14 15:39:00,58.6,35.6,30.05,WSW,254,0.0,2.0,42,0.00,,,0.01,Wunderground v.1.13,2013-05-14 19:39:00,
2013-05-14 15:44:00,58.4,34.8,30.05,WSW,254,1.0,1.0,41,0.00,,,0.01,Wunderground v.1.13,2013-05-14 19:44:00,
2013-05-14 15:49:00,58.3,33.4,30.05,WSW,254,0.0,3.0,39,0.00,,,0.01,Wunderground v.1.13,2013-05-14 19:49:00,
2013-05-14 15:54:00,58.3,34.1,30.05,WSW,254,0.0,3.0,40,0.00,,,0.01,Wunderground v.1.13,2013-05-14 19:54:00,
2013-05-14 15:59:00,58.0,33.8,30.05,WSW,254,1.0,2.0,40,0.00,,,0.01,Wunderground v.1.13,2013-05-14 19:59:00,
2013-05-14 16:04:00,57.7,34.7,30.04,WSW,254,0.0,0.0,42,0.00,,,0.01,Wunderground v.1.13,2013-05-14 20:04:00,
2013-05-14 16:09:00,57.5,37.4,30.04,WSW,254,0.0,0.0,47,0.00,,,0.01,Wunderground v.1.13,2013-05-14 20:09:00,
2013-05-14 16:14:00,57.2,36.0,30.05,WSW,254,0.0,1.0,45,0.00,,,0.01,Wunderground v.1.13,2013-05-14 20:14:00,
2013-05-14 16:19:00,56.8,39.8,30.05,WSW,254,0.0,1.0,53,0.00,,,0.01,Wunderground v.1.13,2013-05-14 20:19:00,
2013-05-14 16:24:00,56.4,40.0,30.04,SW,223,0.0,0.0,54,0.00,,,0.01,Wunderground v.1.13,2013-05-14 20:24:00,
2013-05-14 16:29:00,56.0,41.0,30.04,SW,219,0.0,0.0,57,0.00,,,0.01,Wunderground v.1.13,2013-05-14 20:29:00,
2013-05-14 16:34:00,56.0,40.5,30.03,SW,221,0.0,0.0,56,0.00,,,0.01,Wunderground v.1.13,2013-05-14 20:34:00,
2013-05-14 16:39:00,56.1,41.5,30.03,SW,221,0.0,0.0,58,0.00,,,0.01,Wunderground v.1.13,2013-05-14 20:39:00,
2013-05-14 16:44:00,56.1,43.7,30.03,SW,221,0.0,1.0,63,0.00,,,0.01,Wunderground v.1.13,2013-05-14 20:44:00,
2013-05-14 16:49:00,55.9,42.6,30.03,SW,221,0.0,1.0,61,0.00,,,0.01,Wunderground v.1.13,2013-05-14 20:49:00,
2013-05-14 16:54:00,55.9,40.4,30.03,SW,221,0.0,0.0,56,0.00,,,0.01,Wunderground v.1.13,2013-05-14 20:54:00,
2013-05-14 16:59:00,55.8,41.2,30.02,SW,221,0.0,1.0,58,0.00,,,0.01,Wunderground v.1.13,2013-05-14 20:59:00,
2013-05-14 17:04:00,55.7,44.1,30.02,SW,221,0.0,0.0,65,0.00,,,0.01,Wunderground v.1.13,2013-05-14 21:04:00,
2013-05-14 17:09:00,55.5,44.3,30.02,SW,221,0.0,2.0,66,0.00,,,0.01,Wunderground v.1.13,2013-05-14 21:09:00,
2013-05-14 17:14:00,55.1,44.3,30.02,SW,221,0.0,1.0,67,0.00,,,0.01,Wunderground v.1.13,2013-05-14 21:14:00,
2013-05-14 17:19:00,54.8,43.3,30.02,SW,221,0.0,0.0,65,0.00,,,0.01,Wunderground v.1.13,2013-05-14 21:19:00,
2013-05-14 17:24:00,54.8,45.9,30.02,SW,221,0.0,1.0,72,0.00,,,0.01,Wunderground v.1.13,2013-05-14 21:24:00,
2013-05-14 17:29:00,54.4,46.3,30.01,SW,221,0.0,0.0,74,0.00,,,0.01,Wunderground v.1.13,2013-05-14 21:29:00,
2013-05-14 17:34:00,54.4,46.3,30.00,SW,221,0.0,0.0,74,0.00,,,0.01,Wunderground v.1.13,2013-05-14 21:34:00,
2013-05-14 17:39:00,54.5,44.5,30.00,SW,221,0.0,0.0,69,0.00,,,0.01,Wunderground v.1.13,2013-05-14 21:39:00,
2013-05-14 17:44:00,54.8,43.7,30.00,SW,221,0.0,1.0,66,0.00,,,0.01,Wunderground v.1.13,2013-05-14 21:44:00,
2013-05-14 17:49:00,55.1,42.3,29.99,SW,221,0.0,0.0,62,0.00,,,0.01,Wunderground v.1.13,2013-05-14 21:49:00,
2013-05-14 17:54:00,55.5,42.7,29.98,SW,221,1.0,1.0,62,0.00,,,0.01,Wunderground v.1.13,2013-05-14 21:54:00,
2013-05-14 17:59:00,56.0,42.7,29.98,SW,221,0.0,3.0,61,0.00,,,0.01,Wunderground v.1.13,2013-05-14 21:59:00,
2013-05-14 18:04:00,56.4,43.1,29.99,SW,221,0.0,3.0,61,0.00,,,0.01,Wunderground v.1.13,2013-05-14 22:04:00,
2013-05-14 18:09:00,57.1,41.1,29.98,SW,221,0.0,4.0,55,0.00,,,0.01,Wunderground v.1.13,2013-05-14 22:09:00,
2013-05-14 18:14:00,58.0,41.4,29.97,SW,221,0.0,1.0,54,0.00,,,0.01,Wunderground v.1.13,2013-05-14 22:14:00,
2013-05-14 18:19:00,58.1,42.5,29.97,SW,221,0.0,0.0,56,0.00,,,0.01,Wunderground v.1.13,2013-05-14 22:19:00,
2013-05-14 18:24:00,58.7,41.1,29.97,SW,219,0.0,5.0,52,0.00,,,0.01,Wunderground v.1.13,2013-05-14 22:24:00,
2013-05-14 18:29:00,59.6,39.3,29.96,SW,219,0.0,4.0,47,0.00,,,0.01,Wunderground v.1.13,2013-05-14 22:29:00,
2013-05-14 18:34:00,60.4,37.8,29.96,SSE,156,2.0,12.0,43,0.00,,,0.01,Wunderground v.1.13,2013-05-14 22:34:00,
2013-05-14 18:39:00,60.5,37.9,29.97,SSE,165,1.0,6.0,43,0.00,,,0.01,Wunderground v.1.13,2013-05-14 22:39:00,
2013-05-14 18:45:00,60.7,38.1,29.97,SSE,165,1.0,4.0,43,0.00,,,0.01,Wunderground v.1.13,2013-05-14 22:45:00,
2013-05-14 18:50:00,60.8,38.1,29.96,SSE,147,2.0,7.0,43,0.00,,,0.01,Wunderground v.1.13,2013-05-14 22:50:00,
2013-05-14 18:55:00,60.5,37.9,29.96,SSE,147,0.0,5.0,43,0.00,,,0.01,Wunderground v.1.13,2013-05-14 22:55:00,
2013-05-14 19:00:00,60.3,37.1,29.96,SSE,147,0.0,1.0,42,0.00,,,0.01,Wunderground v.1.13,2013-05-14 23:00:00,
2013-05-14 19:05:00,59.6,41.4,29.96,SSE,147,0.0,1.0,51,0.00,,,0.01,Wunderground v.1.13,2013-05-14 23:05:00,
2013-05-14 19:10:00,59.4,38.0,29.96,SSE,147,2.0,4.0,45,0.00,,,0.01,Wunderground v.1.13,2013-05-14 23:10:00,
2013-05-14 19:15:00,59.7,37.7,29.96,SSE,151,4.0,6.0,44,0.00,,,0.01,Wunderground v.1.13,2013-05-14 23:15:00,
2013-05-14 19:20:00,59.7,38.3,29.96,SSE,156,0.0,1.0,45,0.00,,,0.01,Wunderground v.1.13,2013-05-14 23:20:00,
2013-05-14 19:25:00,59.3,37.9,29.96,SSE,156,2.0,2.0,45,0.00,,,0.01,Wunderground v.1.13,2013-05-14 23:25:00,
2013-05-14 19:30:00,59.2,37.9,29.95,SSE,157,0.0,1.0,45,0.00,,,0.01,Wunderground v.1.13,2013-05-14 23:30:00,
2013-05-14 19:35:00,59.1,38.3,29.96,SSE,157,2.0,2.0,46,0.00,,,0.01,Wunderground v.1.13,2013-05-14 23:35:00,
2013-05-14 19:40:00,58.9,41.3,29.96,SSE,157,0.0,0.0,52,0.00,,,0.01,Wunderground v.1.13,2013-05-14 23:40:00,
2013-05-14 19:45:00,58.0,40.5,29.97,SSE,157,0.0,0.0,52,0.00,,,0.01,Wunderground v.1.13,2013-05-14 23:45:00,
2013-05-14 19:50:00,57.5,41.9,29.96,SSE,157,0.0,1.0,56,0.00,,,0.01,Wunderground v.1.13,2013-05-14 23:50:00,
2013-05-14 19:55:00,56.9,44.0,29.96,SSE,157,4.0,4.0,62,0.00,,,0.01,Wunderground v.1.13,2013-05-14 23:55:00,
2013-05-14 20:00:00,56.8,39.8,29.96,SSE,157,0.0,1.0,53,0.00,,,0.01,Wunderground v.1.13,2013-05-15 00:00:00,
2013-05-14 20:05:00,57.1,42.9,29.96,SSE,157,0.0,1.0,59,0.00,,,0.01,Wunderground v.1.13,2013-05-15 00:05:00,
2013-05-14 20:10:00,56.6,43.7,29.97,SSE,157,0.0,0.0,62,0.00,,,0.01,Wunderground v.1.13,2013-05-15 00:10:00,
2013-05-14 20:15:00,56.3,42.6,29.97,SSE,157,0.0,2.0,60,0.00,,,0.01,Wunderground v.1.13,2013-05-15 00:15:00,
2013-05-14 20:20:00,55.8,44.2,29.97,SSE,157,0.0,1.0,65,0.00,,,0.01,Wunderground v.1.13,2013-05-15 00:20:00,
2013-05-14 20:25:00,55.4,44.2,29.98,SSE,157,0.0,1.0,66,0.00,,,0.01,Wunderground v.1.13,2013-05-15 00:25:00,
2013-05-14 20:30:00,55.2,43.6,29.97,SSE,157,0.0,0.0,65,0.00,,,0.01,Wunderground v.1.13,2013-05-15 00:30:00,
2013-05-14 20:35:00,55.0,43.8,29.97,SSE,157,0.0,0.0,66,0.00,,,0.01,Wunderground v.1.13,2013-05-15 00:35:00,
2013-05-14 20:40:00,54.6,42.3,29.97,SSE,157,0.0,0.0,63,0.00,,,0.01,Wunderground v.1.13,2013-05-15 00:40:00,
2013-05-14 20:45:00,54.4,43.3,29.98,SSE,157,0.0,0.0,66,0.00,,,0.01,Wunderground v.1.13,2013-05-15 00:45:00,
2013-05-14 20:50:00,54.0,44.4,29.98,SSE,157,0.0,0.0,70,0.00,,,0.01,Wunderground v.1.13,2013-05-15 00:50:00,
2013-05-14 20:55:00,53.7,43.8,29.98,SSE,157,2.0,4.0,69,0.00,,,0.01,Wunderground v.1.13,2013-05-15 00:55:00,
2013-05-14 21:00:00,53.7,43.4,29.98,SSE,157,0.0,5.0,68,0.00,,,0.01,Wunderground v.1.13,2013-05-15 01:00:00,
2013-05-14 21:05:00,54.2,43.1,29.98,SSE,157,0.0,2.0,66,0.00,,,0.01,Wunderground v.1.13,2013-05-15 01:05:00,
2013-05-14 21:10:00,54.1,42.2,29.98,SSE,157,0.0,1.0,64,0.00,,,0.01,Wunderground v.1.13,2013-05-15 01:10:00,
2013-05-14 21:15:00,54.3,42.4,29.98,SSE,157,0.0,1.0,64,0.00,,,0.01,Wunderground v.1.13,2013-05-15 01:15:00,
2013-05-14 21:20:00,54.0,43.3,29.98,SSE,157,0.0,0.0,67,0.00,,,0.01,Wunderground v.1.13,2013-05-15 01:20:00,
2013-05-14 21:25:00,53.6,44.8,29.98,SSE,157,0.0,0.0,72,0.00,,,0.01,Wunderground v.1.13,2013-05-15 01:25:00,
2013-05-14 21:30:00,53.3,44.1,29.97,SSE,157,0.0,0.0,71,0.00,,,0.01,Wunderground v.1.13,2013-05-15 01:30:00,
2013-05-14 21:35:00,53.3,42.2,29.97,SSE,157,0.0,0.0,66,0.00,,,0.01,Wunderground v.1.13,2013-05-15 01:35:00,
2013-05-14 21:40:00,53.4,43.1,29.97,SSE,157,0.0,0.0,68,0.00,,,0.01,Wunderground v.1.13,2013-05-15 01:40:00,
2013-05-14 21:45:00,54.1,38.7,29.97,SSE,157,1.0,5.0,56,0.00,,,0.01,Wunderground v.1.13,2013-05-15 01:45:00,
2013-05-14 21:50:00,55.9,37.5,29.97,SSE,164,0.0,4.0,50,0.00,,,0.01,Wunderground v.1.13,2013-05-15 01:50:00,
2013-05-14 21:55:00,56.9,37.9,29.97,SSE,149,4.0,9.0,49,0.00,,,0.01,Wunderground v.1.13,2013-05-15 01:55:00,
2013-05-14 22:00:00,57.4,37.3,29.97,SSE,163,1.0,3.0,47,0.00,,,0.01,Wunderground v.1.13,2013-05-15 02:00:00,
2013-05-14 22:06:00,56.7,40.2,29.97,SSE,163,5.0,5.0,54,0.00,,,0.01,Wunderground v.1.13,2013-05-15 02:06:00,
2013-05-14 22:11:00,55.9,39.5,29.97,SSE,163,1.0,1.0,54,0.00,,,0.01,Wunderground v.1.13,2013-05-15 02:11:00,
2013-05-14 22:16:00,55.5,41.0,29.97,SSE,161,4.0,4.0,58,0.00,,,0.01,Wunderground v.1.13,2013-05-15 02:16:00,
2013-05-14 22:21:00,55.1,39.7,29.97,SSE,161,1.0,2.0,56,0.00,,,0.01,Wunderground v.1.13,2013-05-15 02:21:00,
2013-05-14 22:26:00,54.8,42.4,29.97,SSE,161,0.0,1.0,63,0.00,,,0.01,Wunderground v.1.13,2013-05-15 02:26:00,
2013-05-14 22:31:00,54.6,41.0,29.97,SSE,161,1.0,1.0,60,0.00,,,0.01,Wunderground v.1.13,2013-05-15 02:31:00,
2013-05-14 22:36:00,54.7,40.2,29.97,SSE,161,0.0,1.0,58,0.00,,,0.01,Wunderground v.1.13,2013-05-15 02:36:00,
2013-05-14 22:41:00,54.6,41.8,29.96,SSE,161,0.0,0.0,62,0.00,,,0.01,Wunderground v.1.13,2013-05-15 02:41:00,
2013-05-14 22:46:00,54.1,43.0,29.96,SSE,161,1.0,1.0,66,0.00,,,0.01,Wunderground v.1.13,2013-05-15 02:46:00,
2013-05-14 22:51:00,53.9,42.0,29.95,SSE,161,1.0,1.0,64,0.00,,,0.01,Wunderground v.1.13,2013-05-15 02:51:00,
2013-05-14 22:56:00,54.0,41.7,29.95,SSE,161,0.0,2.0,63,0.00,,,0.01,Wunderground v.1.13,2013-05-15 02:56:00,
2013-05-14 23:01:00,54.0,42.1,29.95,SSE,161,0.0,0.0,64,0.00,,,0.01,Wunderground v.1.13,2013-05-15 03:01:00,
2013-05-14 23:06:00,54.1,41.4,29.95,SSE,161,1.0,1.0,62,0.00,,,0.01,Wunderground v.1.13,2013-05-15 03:06:00,
2013-05-14 23:11:00,54.0,41.7,29.95,SSE,161,0.0,1.0,63,0.00,,,0.01,Wunderground v.1.13,2013-05-15 03:11:00,
2013-05-14 23:16:00,53.8,43.1,29.95,SSE,161,0.0,0.0,67,0.00,,,0.01,Wunderground v.1.13,2013-05-15 03:16:00,
2013-05-14 23:21:00,53.7,41.0,29.94,SSE,162,0.0,5.0,62,0.00,,,0.01,Wunderground v.1.13,2013-05-15 03:21:00,
2013-05-14 23:26:00,55.0,39.6,29.94,SSE,164,1.0,4.0,56,0.00,,,0.01,Wunderground v.1.13,2013-05-15 03:26:00,
2013-05-14 23:31:00,55.8,38.9,29.94,SW,221,5.0,5.0,53,0.00,,,0.01,Wunderground v.1.13,2013-05-15 03:31:00,
2013-05-14 23:36:00,56.2,38.3,29.94,West,259,2.0,10.0,51,0.00,,,0.01,Wunderground v.1.13,2013-05-15 03:36:00,
2013-05-14 23:41:00,56.5,38.1,29.94,WSW,246,0.0,8.0,50,0.00,,,0.01,Wunderground v.1.13,2013-05-15 03:41:00,
2013-05-14 23:46:00,56.5,38.1,29.93,WSW,250,0.0,3.0,50,0.00,,,0.01,Wunderground v.1.13,2013-05-15 03:46:00,
2013-05-14 23:51:00,56.6,38.2,29.93,WSW,250,0.0,4.0,50,0.00,,,0.01,Wunderground v.1.13,2013-05-15 03:51:00,
2013-05-14 23:56:00,56.6,39.2,29.93,WSW,237,0.0,4.0,52,0.00,,,0.01,Wunderground v.1.13,2013-05-15 03:56:00,